Location: Northam
(31.6525°S, 116.6655°E)
Time: 02:53:36
(UTC+08:00)

STARLINK-1859 - Pass Details

Date: 17 January 2021
Orbit: 545 x 549 km, 53.0° (Epoch: 28 February)

Event Time Altitude Azimuth Distance (km) Brightness Sun altitude
Rises 20:32:18 0° 217° (SW) 2,734 8.7 -13.9°
Reaches altitude 10° 20:34:37 10° 211° (SSW) 1,835 7.4 -14.3°
Maximum altitude 20:38:38 45° 137° (SE) 760 4.2 -14.9°
Enters shadow 20:40:37 25° 78° (ENE) 1,121 4.7 -15.3°
